Location: Moscow
(38.3171°N, 79.0889°W)
Time: 02:05:34
(UTC+00:00)

Delta 2 Rocket - Pass Details

Date: 07 November 2025
Orbit: 356 x 508 km, 35.6° (Epoch: 08 December)

Event Time Altitude Azimuth Distance (km) Brightness Sun altitude
Rises 22:57:18 0° 247° (WSW) 2,644 8.9 -9.7°
Reaches altitude 10° 22:59:38 10° 241° (WSW) 1,749 7.3 -10.1°
Maximum altitude 23:03:29 45° 168° (SSE) 706 3.9 -10.8°
Enters shadow 23:06:27 15° 99° (E) 1,408 4.8 -11.4°
